Location: St. Louis
(38.6270°N, 90.1994°W)
Time: 16:20:09
(UTC-05:00)

SR - Visible Passes

Search period start: 27 May 2022 00:00
Search period end: 06 June 2022 00:00
Orbit: 574 x 879 km, 66.7° (Epoch: 26 May)

Date Brightness Start Highest point End Pass type
(mag) Time Alt. Az. Time Alt. Az. Time Alt. Az.
27 May ? 04:42:30 10° S 04:46:52 40° ESE 04:51:37 10° NE visible
28 May ? 03:53:57 10° SSE 03:57:10 18° ESE 04:00:34 10° ENE visible
29 May ? 04:43:50 10° SSW 04:48:32 81° ESE 04:53:45 10° NNE visible
30 May ? 03:55:14 15° S 03:58:39 36° ESE 04:03:20 10° NE visible
31 May ? 03:06:42 12° SE 03:08:58 17° ESE 03:12:08 10° ENE visible
31 May ? 04:46:05 12° SW 04:50:25 53° WNW 04:55:34 10° NNE visible
01 Jun ? 03:57:30 25° SSW 04:00:18 74° ESE 04:05:31 10° NNE visible
02 Jun ? 03:08:52 27° SE 03:10:26 33° ESE 03:15:02 10° NE visible
02 Jun ? 04:48:14 10° WSW 04:52:28 29° NW 04:57:06 10° N visible
03 Jun ? 02:20:11 15° ESE 02:20:47 15° ESE 02:23:39 10° ENE visible
03 Jun ? 03:59:33 26° SW 04:02:08 58° WNW 04:07:22 10° NNE visible
04 Jun ? 03:10:49 48° S 03:12:03 67° ESE 03:17:16 10° NNE visible
04 Jun ? 04:51:20 10° W 04:54:43 18° NW 04:58:18 10° N visible
05 Jun ? 02:22:03 30° ESE 02:22:13 30° ESE 02:26:43 10° NE visible
05 Jun ? 04:01:26 19° WSW 04:04:10 32° NW 04:08:56 10° N visible
